Location: Hohenfelde
(53.8441°N, 9.6220°E)
Time: 12:08:44
(UTC+00:00)

Cosmos 1818 - Pass Details

Date: 14 July 2020
Orbit: 777 x 796 km, 65.0° (Epoch: 09 August)

Event Time Altitude Azimuth Distance (km) Brightness Sun altitude
Rises 01:13:49 0° 314° (NW) 3,309 7.0 -11.1°
Reaches altitude 10° 01:16:16 10° 317° (NW) 2,377 6.3 -11.0°
Maximum altitude 01:21:43 66° 40° (NE) 870 4.1 -10.6°
Drops below altitude 10° 01:27:09 10° 123° (ESE) 2,365 6.0 -10.2°
Sets 01:29:35 0° 126° (SE) 3,291 6.7 -10.1°
